Retour au catalogue

CSO 2

ActifMilitaireSSO
NORAD 47305·PAYLOAD·🇫🇷 France

Lancé Dec 29, 2020 depuis Guiana Space Centre

Loading…

Prochains Passages (prochaines 24 heures)

TLE

PériméSource: Mike McCants

Époque: Aug 16, 2026, 01:52 UTC

1 47305U 20104A   26228.07801686 0.00000000  00000-0  00000-0 0    05
2 47305  97.3522 167.8652 0002125  70.0965 289.9033 15.26904832    05

Suivez CSO 2 en temps réel avec AllMySat

Download on the App Store